星链-2704 (STARLINK-2704 )

导读 | 豆包AI

STARLINK-2704是美国太空探索技术公司(SpaceX)星链计划中的卫星,于2021年5月26日发射,属于星链星座组网批次。星链旨在搭建全球卫星互联网,为偏远地区等提供互联网接入服务,该卫星入轨后逐步参与星座运行,服务全球网络覆盖部署,是SpaceX大规模低轨星座搭建中的组成单元。

Basic Information
目录编号:
48643
目录名称:
STARLINK-2704
国际标识:
2021-044F
轨道中心:
EARTH
卫星名称:
星链-2704
卫星全名:
星链-2704 (STARLINK-2704 )
卫星状态:
在轨 (已飞行1753 天)
发射日期:
2021-05-26 UTC
国别 :
美国 (US)
星等 :
--
Orbit Information
数据来源 国际轨道数据 AOE轨道数据
星历时间 2026-03-14T15:01:41+0800
11小时前
查看轨道信息
2026-03-13T01:00:00+0800
2天前
查看轨道信息
半长轴 6853.334km 6853.418km
偏心率 0.0001316 0.000245
轨道倾角 53.160° 53.159°
近地点辐角 101.069° 88.458°
升交点赤经 92.480° 99.844°
平近点角 259.046° 178.163°
近地点 474.295km 473.601km
远地点 476.099km 476.961km
周期 94.105分钟 94.107分钟
每日圈数 15.302062 15.301781
Detailed Information
固有亮度:
5
最大亮度:
2.5
卫星平台:
Starlink V1.0
覆盖范围:
全球
运营商:
太空探索技术公司
运营商所在国:
美国
制造商(研发单位):
太空探索技术公司
制造商所在国:
美国
使用方式:
暂无
Satellite Introduction
星链(Starlink)计划是由太空探索技术公司(SpaceX)提出的一个巨型低轨卫星互联网星座项目,计划在2019年至2024年间在太空搭建由约1.2万颗卫星组成的“星链”网络,其中1584颗将部署在地球上空550千米处的近地轨道,并从2020年开始工作。该卫星仍在工作。
2D Orbit Map
3D Orbit Map
Orbit Altitude Analysis Chart
Orbit Inclination Analysis Chart
Orbit Comprehensive Analysis Chart
View Comprehensive Chart